Location: Unspecified
(0.0000°N, 0.0000°E)
Time: 03:46:17
(UTC+00:00)

A-11 Canister half - Visible Passes

Search period start: 19 August 2017 00:00
Search period end: 29 August 2017 00:00
Orbit: 1516 x 1684 km, 47.2° (Epoch: 17 August)

Date Brightness Start Highest point End Pass type
(mag) Time Alt. Az. Time Alt. Az. Time Alt. Az.
20 Aug 11.0 21:10:44 10° SSW 21:10:54 11° SSW 21:10:54 11° SSW visible
21 Aug 10.5 20:47:57 10° SSW 20:50:00 18° SSW 20:50:00 18° SSW visible
22 Aug 10.0 20:25:12 10° SSW 20:29:13 27° S 20:29:13 27° S visible
23 Aug 9.5 20:02:27 10° SSW 20:08:34 37° SSE 20:08:34 37° SSE visible
24 Aug 9.3 19:39:43 10° SSW 19:48:06 40° SE 19:48:06 40° SE visible
24 Aug 10.8 21:44:18 10° WSW 21:46:24 18° WSW 21:46:24 18° WSW visible
25 Aug 9.4 19:17:00 10° SSW 19:25:18 36° SE 19:27:48 31° E visible
25 Aug 10.2 21:21:15 10° WSW 21:26:08 32° W 21:26:08 32° W visible
26 Aug 9.5 18:54:19 10° SSW 19:02:23 33° SE 19:07:44 19° E visible
26 Aug 9.5 20:58:13 10° WSW 21:06:03 49° WNW 21:06:03 49° WNW visible
27 Aug 9.6 18:31:39 10° S 18:39:29 30° SE 18:47:12 10° ENE visible
27 Aug 9.4 20:35:12 10° SW 20:44:10 55° NW 20:46:14 47° N visible
28 Aug 11.6 05:21:16 10° NNE 05:24:51 12° NE 05:28:25 10° ENE visible
28 Aug 9.3 20:12:13 10° SW 20:21:17 60° NW 20:26:39 27° NNE visible
